STARLINK-32460, 61914

Orbit data source: Space-Track

STARLINK-32460, 61914 is a payload satellite owned by SpaceX/Seattle (US) in LEO that was launched on Mon, 11 Nov 2024 UTC via an FALCON 9 launch vehicle from the Air Force Eastern Test Range (AFETR). Payload-class satellites include a variety of spacecraft equipped with specific instruments for various scientific and technological missions. These include communications satellites like Starlink; space stations such as the ISS; scientific satellites like the Hubble; Earth observation satellites from companies like Planet Labs, Umbra, and HawkEye 360; GPS; miniature CubeSats for education and research; and military/defense satellites.

Loading next visibility...
Identifier
61914, 2024-207C
Orbit
LEO
Last TLE update
15 hours ago
Origin
Manufacturer
SpaceX/Seattle
Mission
Operational Commercial Communications
Bus & Motor
STARLINK V2M, Unknown motor
Mass
730 kg wet, ~700 kg dry
Launch date (UTC)
2024-11-11 (8 months ago)
Launch vehicle
FALCON 9
Launch site
Air Force Eastern Test Range (AFETR)
Object type
Payload
Rocket body
Debris
Shape & HBR
Box + 2 Pan, 29 m
Radar Cross Section
36.964 m², Large (>1 m²)

Expand to show TLE details & history

TLE from 15 hours ago
0 STARLINK-32460
1 61914U 24207C   25186.18034593  .00016998  00000-0  62562-3 0  9998
2 61914  42.9969 239.1209 0000651 264.3464  95.7314 15.27588697 36870
Epoch: 2025-07-05T04:19Z
TLE epoch observation values (Epoch: 2025-07-05T04:19:41.888Z)
Latitude
0.00003°
Longitude
-109.22569°
Altitude
482.843 km
Speed
7.626 km/s
True Right ascension
15h 56m 29s
True Declination
0° 00' 00"
Sunlit
Object was in full shadow at epoch
Visualization orbit readout
Latitude
-36.54363°
Longitude
119.43255°
Altitude
493.19 km
Speed
7.619 km/s
Apparent Right ascension
05h 27m 14s
Apparent Declination
-85° 01' 14"
Sunlit
Object is in daylight
Visualization observer readout
Local Sidereal Time
07:25:39
Azimuth
183.021° SSW
Elevation
-35.546°
Doppler factor
1
Orbital elements
Apogee altitude
485.416 km
Perigee altitude
484.522 km
Semi-major axis
6,863.106 km
Eccentricity
0.00007
Inclination
42.9969°
RAAN
239.1209°
Arg. of periapsis
264.3464°
True anomaly
Unknown
Mean anomaly
95.7314°
Eccentric anomaly
Unknown
Mean motion
3.81735 °/min
Orbital period
94.31 mins
BSTAR
0.00062562
Loading maneuver chart data...
Loading SW <> Apogee altitude chart data...
Loading historical data...
Loading historical data...
Loading historical data...
Loading historical data...
Loading historical data...
Loading historical data...
Loading historical data...

STARLINK-32460 Visibility forecast

Observer location: undefined°, undefined°

Span
Click to sort rows by Start time (UTC) header in descending order
Start Az.
Max El. time (UTC)
Max El. Az.
Max El.
End time (UTC)
End Az.
5 mins2025-07-06 07:14:56.945Z232.367° WSW2025-07-06 07:16:56.945Z180.196° SSW41.232°2025-07-06 07:19:56.945Z77.946° E
5 mins2025-07-06 08:53:56.945Z281.857° WNW2025-07-06 08:55:56.945Z334.527° NNW38.693°2025-07-06 08:58:56.945Z68.592° E
6 mins2025-07-06 10:32:56.945Z293.244° NW2025-07-06 10:34:56.945Z329.585° NNW39.932°2025-07-06 10:38:56.945Z93.886° ESE
5 mins2025-07-06 12:11:56.945Z271.033° WNW2025-07-06 12:13:56.945Z224.652° SW32.654°2025-07-06 12:16:56.945Z143.091° SSE
|